Home   Weather   Oulu   Past weeks

Flag for Finland Past Weather in Oulu, Finland — Yesterday and Last 2 Weeks

Now
25 °F

Clear.


Feels Like: 18 °F
Forecast: 27 / 39 °F
Wind: 6 mph from Southwest

Location: Oulu Airport

Current Time: Jan 18, 2017 at 8:25:21 am

Latest Report: Jan 18, 2017 at 7:50 am


Visibility: 10 mi

Pressure: 30.07 "Hg

Humidity: 100%

Dew Point: 25 °F

Location of OuluLocation

Past Weather in Oulu — Graph

°F

Oulu Temperature Yesterday

Maximum temperature yesterday: 32 °F (at 7:50 pm)
Minimum temperature yesterday: 19 °F (at 12:20 am)
Average temperature yesterday: 26 °F

High & Low Weather Summary for the Past Weeks

 TemperatureHumidityPressure
High37 °F (Jan 8, 9:20 pm)100% (Jan 8, 3:20 am)30.51 "Hg (Jan 8, 3:20 am)
Low-18 °F (Jan 5, 8:50 am)69% (Jan 11, 11:50 pm)29.06 "Hg (Jan 12, 11:50 am)
Average20 °F86%29.72 "Hg
* Reported Jan 3 7:20 am — Jan 18 7:20 am, Oulu, Weather by CustomWeather, © 2017

Note: Actual official high and low records may vary slightly from our data, if they occured in-between our weather recording intervals... More about our weather records

Advertising

Oulu Weather History for the Previous 24 Hours

Scroll right to see more
 ConditionsComfort  
Time TempWeatherWind HumidityBarometerVisibility
7:20 am
Wed, Jan 18
25 °FClear.5 mph93%30.07 "Hg10 mi
6:50 am23 °FClear.5 mph93%30.04 "Hg10 mi
6:20 am27 °FClear.6 mph86%30.04 "Hg10 mi
5:50 am27 °FPassing clouds.3 mph86%30.04 "HgN/A
5:20 am28 °FClear.5 mph86%30.04 "Hg10 mi
4:50 am30 °FClear.10 mph80%30.04 "Hg10 mi
4:20 am30 °FClear.12 mph86%30.04 "Hg10 mi
3:50 am28 °FClear.8 mph93%30.04 "Hg10 mi
3:20 am28 °FClear.9 mph93%30.04 "Hg10 mi
2:50 am30 °FClear.10 mph86%30.04 "Hg10 mi
2:20 am30 °FClear.9 mph86%30.04 "Hg10 mi
1:50 am32 °FClear.13 mph87%30.01 "Hg10 mi
1:20 am32 °FPassing clouds.10 mph87%30.01 "HgN/A
12:50 am32 °FClear.10 mph87%30.01 "Hg10 mi
12:20 am32 °FClear.13 mph87%29.98 "Hg10 mi
11:50 pm
Tue, Jan 17
32 °FClear.14 mph87%29.98 "Hg10 mi
11:20 pm32 °FPassing clouds.12 mph87%29.98 "HgN/A
10:50 pm32 °FPassing clouds.13 mph93%29.98 "HgN/A
10:20 pm32 °FPassing clouds.13 mph93%29.98 "HgN/A
9:50 pm32 °FLow clouds.13 mph93%29.98 "HgN/A
9:20 pm32 °FLow clouds.14 mph93%29.98 "HgN/A
8:50 pm32 °FLow clouds.13 mph93%29.98 "HgN/A
8:20 pm32 °FLow clouds.13 mph93%29.98 "HgN/A
7:50 pm32 °FLow clouds.10 mph93%29.98 "HgN/A
7:20 pm30 °FLow clouds.10 mph93%30.01 "HgN/A
6:50 pm30 °FLow clouds.13 mph93%30.01 "HgN/A
6:20 pm30 °FLow clouds.13 mph93%30.01 "HgN/A
5:50 pm30 °FLow clouds.12 mph86%30.01 "HgN/A
5:20 pm28 °FLow clouds.12 mph93%30.01 "HgN/A
4:50 pm28 °FLow clouds.12 mph93%30.04 "HgN/A
4:20 pm27 °FOvercast.12 mph93%30.04 "HgN/A
3:50 pm27 °FOvercast.12 mph93%30.07 "HgN/A
3:20 pm27 °FOvercast.13 mph93%30.07 "HgN/A
2:50 pm27 °FOvercast.13 mph93%30.07 "HgN/A
2:20 pm27 °FLight snow. Mostly cloudy.13 mph93%30.09 "HgN/A
1:50 pm27 °FLight snow. Mostly cloudy.13 mph93%30.09 "Hg2 mi
1:20 pm25 °FOvercast.12 mph100%30.09 "HgN/A
12:50 pm25 °FOvercast.12 mph100%30.12 "HgN/A
12:20 pm25 °FOvercast.12 mph93%30.12 "HgN/A
11:50 am25 °FMostly cloudy.12 mph93%30.12 "HgN/A
11:20 am25 °FMostly cloudy.13 mph93%30.12 "HgN/A
10:50 am23 °FMore clouds than sun.13 mph100%30.15 "HgN/A
10:20 am23 °FPassing clouds.12 mph93%30.15 "HgN/A
9:50 am23 °FPassing clouds.10 mph93%30.15 "HgN/A
9:20 am23 °FPassing clouds.12 mph93%30.15 "HgN/A
8:50 am23 °FPassing clouds.12 mph93%30.15 "HgN/A
8:20 am23 °FLow clouds.13 mph93%30.15 "HgN/A
Weather by CustomWeather, © 2017

See weather overviewHow to use our weather pages